{"data":{"norad_id":67515,"intl_designator":"2026-012Y","name":"STARLINK-36543","alt_names":[],"object_type":"PAYLOAD","status":"ACTIVE","operator":null,"country":"US","launch_date":"2026-01-18","launch_site_code":"AFETR","launch_vehicle":null,"mission":null,"orbit_class":"UNKNOWN","rcs_meters":null,"size_class":null,"mass_kg":null,"dimensions":null,"purposes":["comms"],"wikipedia_slug":null,"has_3d_model":false,"image_url":null,"decayed_at":null,"tle_current":{"epoch":"2026-09-19T13:43:40.672992Z","epoch_age_seconds":152485,"freshness":"FRESH","line1":"1 67515U 26012Y   26262.57199853  .00012833  00000+0  47473-3 0  9994","line2":"2 67515  43.0028 299.4602 0001734 286.4917  73.5744 15.27603374 37410","mean_motion":15.27603374,"eccentricity":0.0001734,"inclination_deg":43.0028,"raan_deg":299.4602,"arg_perigee_deg":286.4917,"mean_anomaly_deg":73.5744,"bstar":0.00047473,"rev_number":3741,"period_min":94.265306329443,"perigee_km":481.78938923443,"apogee_km":484.16882430025,"semimajor_km":6861.1161067673,"source":"CELESTRAK","updated_at":"2026-09-20T09:00:43.562703Z"}}}